Tracking 29892 objects as of 21-Nov-2024
HD Live streaming from Space Station
objects crossing your sky now

STARLINK-3005

Track STARLINK-3005 now!
10-day predictions
STARLINK-3005 is classified as:


NORAD ID: 48881
Int'l Code: 2021-059C
Perigee: 568.3 km
Apogee: 571.9 km
Inclination: 97.7 °
Period: 95.9 minutes
Semi major axis: 6941 km
RCS: Unknown
Launch date: June 30, 2021
Source: United States (US)
Launch site: AIR FORCE EASTERN TEST RANGE (AFETR)
Your satellite tracking list
Your tracking list is empty




NASA's NSSDC Master Catalog

Two Line Element Set (TLE):
1 48881U 21059C   24324.91741336  .00002043  00000-0  16360-3 0  9993
2 48881  97.6585  86.9804 0002566 245.8522 114.2434 15.01268296187570
Source of the keplerian elements: AFSPC